| time (UTC) | temp F | wind direction | speed MPH | gust MPH | rain 1hr in | rain 24hr in | rain mn in | humidity % | barometer mb |
| 20260505230423 | 80 | 275 | 1.0 | 2.0 | 0.00 | 0.00 | 0.00 | 18 | 1006.7 |
| 20260505225423 | 81 | 289 | 2.0 | 3.0 | 0.00 | 0.00 | 0.00 | 19 | 1006.6 |
| 20260505224423 | 80 | 257 | 1.0 | 2.0 | 0.00 | 0.00 | 0.00 | 20 | 1006.7 |
| 20260505223423 | 80 | 312 | 2.0 | 4.0 | 0.00 | 0.00 | 0.00 | 22 | 1007.0 |
| 20260505222423 | 80 | 300 | 1.0 | 2.0 | 0.00 | 0.00 | 0.00 | 24 | 1007.1 |
| 20260505221424 | 80 | 282 | 1.0 | 2.0 | 0.00 | 0.00 | 0.00 | 25 | 1007.2 |
| 20260505220423 | 80 | 266 | 1.0 | 2.0 | 0.00 | 0.00 | 0.00 | 25 | 1007.5 |
| 20260505215443 | 79 | 252 | 2.0 | 2.0 | 0.00 | 0.00 | 0.00 | 25 | 1007.5 |
| 20260505214424 | 79 | 303 | 2.0 | 3.0 | 0.00 | 0.00 | 0.00 | 26 | 1007.8 |
| 20260505213426 | 79 | 271 | 2.0 | 3.0 | 0.00 | 0.00 | 0.00 | 26 | 1007.9 |
| 20260505212424 | 78 | 225 | 1.0 | 1.0 | 0.00 | 0.00 | 0.00 | 28 | 1007.9 |
| 20260505211444 | 78 | 269 | 2.0 | 3.0 | 0.00 | 0.00 | 0.00 | 28 | 1008.1 |
| 20260505210445 | 77 | 298 | 2.0 | 3.0 | 0.00 | 0.00 | 0.00 | 28 | 1008.4 |
| 20260505205425 | 77 | 262 | 1.0 | 2.0 | 0.00 | 0.00 | 0.00 | 26 | 1008.3 |
| 20260505204445 | 76 | 274 | 1.0 | 2.0 | 0.00 | 0.00 | 0.00 | 26 | 1008.3 |
| 20260505203425 | 76 | 301 | 1.0 | 2.0 | 0.00 | 0.00 | 0.00 | 28 | 1008.5 |
| 20260505202446 | 76 | 298 | 0.0 | 1.0 | 0.00 | 0.00 | 0.00 | 30 | 1008.5 |
| 20260505201426 | 75 | 253 | 1.0 | 1.0 | 0.00 | 0.00 | 0.00 | 31 | 1008.6 |
| 20260505200426 | 75 | 278 | 1.0 | 2.0 | 0.00 | 0.00 | 0.00 | 30 | 1008.7 |
| 20260505195426 | 75 | 241 | 1.0 | 2.0 | 0.00 | 0.00 | 0.00 | 31 | 1008.7 |
| 20260505194446 | 74 | 264 | 2.0 | 3.0 | 0.00 | 0.00 | 0.00 | 31 | 1009.0 |
| 20260505193447 | 73 | 273 | 1.0 | 2.0 | 0.00 | 0.00 | 0.00 | 32 | 1009.0 |
| 20260505192427 | 73 | 257 | 3.0 | 4.0 | 0.00 | 0.00 | 0.00 | 32 | 1009.2 |
| 20260505191436 | 73 | 265 | 3.0 | 3.0 | 0.00 | 0.00 | 0.00 | 34 | 1009.2 |
| 20260505190427 | 72 | 269 | 1.0 | 2.0 | 0.00 | 0.00 | 0.00 | 36 | 1009.3 |
| 20260505185427 | 71 | 245 | 1.0 | 1.0 | 0.00 | 0.00 | 0.00 | 34 | 1009.5 |
| 20260505184428 | 71 | 251 | 1.0 | 1.0 | 0.00 | 0.00 | 0.00 | 34 | 1009.6 |
| 20260505183448 | 70 | 248 | 2.0 | 3.0 | 0.00 | 0.00 | 0.00 | 37 | 1009.6 |
| 20260505182449 | 70 | 294 | 2.0 | 3.0 | 0.00 | 0.00 | 0.00 | 34 | 1009.7 |
| 20260505181428 | 69 | 306 | 1.0 | 1.0 | 0.00 | 0.00 | 0.00 | 37 | 1009.8 |
| 20260505180417 | 68 | 272 | 1.0 | 1.0 | 0.00 | 0.00 | 0.00 | 37 | 1009.9 |
| 20260505175418 | 68 | 215 | 1.0 | 2.0 | 0.00 | 0.00 | 0.00 | 37 | 1009.9 |
| 20260505174418 | 67 | 307 | 1.0 | 1.0 | 0.00 | 0.00 | 0.00 | 40 | 1009.8 |
| 20260505173438 | 66 | 277 | 1.0 | 2.0 | 0.00 | 0.00 | 0.00 | 40 | 1009.8 |
| 20260505172418 | 66 | 115 | 2.0 | 3.0 | 0.00 | 0.00 | 0.00 | 41 | 1009.8 |
| 20260505171439 | 65 | 224 | 1.0 | 1.0 | 0.00 | 0.00 | 0.00 | 40 | 1009.8 |
| 20260505170419 | 65 | 250 | 1.0 | 2.0 | 0.00 | 0.00 | 0.00 | 44 | 1009.7 |
| 20260505165419 | 64 | 241 | 2.0 | 3.0 | 0.00 | 0.00 | 0.00 | 41 | 1009.7 |
| 20260505164439 | 64 | 233 | 1.0 | 2.0 | 0.00 | 0.00 | 0.00 | 44 | 1009.8 |
| 20260505163419 | 63 | 0 | 0.0 | 0.0 | 0.00 | 0.00 | 0.00 | 44 | 1009.8 |
| 20260505162419 | 63 | 301 | 1.0 | 3.0 | 0.00 | 0.00 | 0.00 | 44 | 1009.8 |
| 20260505161419 | 62 | 284 | 2.0 | 4.0 | 0.00 | 0.00 | 0.00 | 46 | 1009.7 |
| 20260505160420 | 62 | 216 | 1.0 | 2.0 | 0.00 | 0.00 | 0.00 | 46 | 1009.6 |
| 20260505152420 | 58 | 307 | 0.0 | 1.0 | 0.00 | 0.00 | 0.00 | 62 | 1009.6 |
| 20260505151442 | 57 | 344 | 1.0 | 2.0 | 0.00 | 0.00 | 0.00 | 64 | 1009.6 |
| 20260505150440 | 56 | 64 | 1.0 | 2.0 | 0.00 | 0.00 | 0.00 | 66 | 1009.6 |
| 20260505140442 | 52 | 92 | 1.0 | 2.0 | 0.00 | 0.00 | 0.00 | 69 | 1009.2 |
| 20260505124423 | 52 | 121 | 2.0 | 4.0 | 0.00 | 0.00 | 0.00 | 65 | 1007.5 |
| 20260505123423 | 52 | 57 | 3.0 | 3.0 | 0.00 | 0.00 | 0.00 | 65 | 1007.5 |
| 20260505122423 | 52 | 84 | 1.0 | 1.0 | 0.00 | 0.00 | 0.00 | 65 | 1007.2 |
| 20260505121423 | 52 | 49 | 2.0 | 3.0 | 0.00 | 0.00 | 0.00 | 64 | 1007.1 |
| 20260505120424 | 53 | 135 | 1.0 | 2.0 | 0.00 | 0.00 | 0.00 | 64 | 1007.0 |
| 20260505115424 | 53 | 96 | 2.0 | 3.0 | 0.00 | 0.00 | 0.00 | 62 | 1006.9 |
| 20260505114424 | 53 | 72 | 1.0 | 1.0 | 0.00 | 0.00 | 0.00 | 62 | 1006.6 |
| 20260505113424 | 54 | 68 | 1.0 | 2.0 | 0.00 | 0.00 | 0.00 | 62 | 1006.5 |
| 20260505112425 | 54 | 109 | 1.0 | 2.0 | 0.00 | 0.00 | 0.00 | 60 | 1006.5 |
| 20260505111445 | 54 | 55 | 1.0 | 2.0 | 0.00 | 0.00 | 0.00 | 60 | 1006.2 |
| 20260505110445 | 55 | 27 | 1.0 | 2.0 | 0.00 | 0.00 | 0.00 | 59 | 1006.2 |
| 20260505101425 | 58 | 0 | 0.0 | 0.0 | 0.00 | 0.00 | 0.00 | 52 | 1005.5 |
| 20260505100506 | 58 | 157 | 0.0 | 0.0 | 0.00 | 0.00 | 0.00 | 50 | 1005.2 |
| 20260505095426 | 58 | 118 | 1.0 | 1.0 | 0.00 | 0.00 | 0.00 | 50 | 1005.1 |
| 20260505094426 | 59 | 195 | 1.0 | 1.0 | 0.00 | 0.00 | 0.00 | 49 | 1004.8 |
| 20260505093426 | 59 | 66 | 1.0 | 1.0 | 0.00 | 0.00 | 0.00 | 49 | 1004.8 |
| 20260505092447 | 60 | 181 | 0.0 | 0.0 | 0.00 | 0.00 | 0.00 | 47 | 1004.8 |
| 20260505091426 | 60 | 178 | 1.0 | 1.0 | 0.00 | 0.00 | 0.00 | 47 | 1004.7 |
| 20260505090427 | 60 | 0.0 | 0.0 | 0.00 | 0.00 | 0.00 | 46 | 1004.5 | |
| 20260505085427 | 60 | 237 | 1.0 | 1.0 | 0.00 | 0.00 | 0.00 | 46 | 1004.2 |
| 20260505084428 | 61 | 187 | 1.0 | 1.0 | 0.00 | 0.00 | 0.00 | 44 | 1004.3 |
| 20260505083427 | 61 | 270 | 1.0 | 1.0 | 0.00 | 0.00 | 0.00 | 44 | 1004.2 |
| 20260505082428 | 61 | 300 | 1.0 | 2.0 | 0.00 | 0.00 | 0.00 | 46 | 1004.1 |
| 20260505081428 | 61 | 279 | 1.0 | 2.0 | 0.00 | 0.00 | 0.00 | 46 | 1004.1 |
| 20260505080428 | 62 | 259 | 1.0 | 1.0 | 0.00 | 0.00 | 0.00 | 44 | 1004.0 |
| 20260505075428 | 62 | 283 | 1.0 | 1.0 | 0.00 | 0.00 | 0.00 | 44 | 1003.9 |
| 20260505074428 | 62 | 202 | 1.0 | 1.0 | 0.00 | 0.00 | 0.00 | 44 | 1003.9 |
| 20260505073429 | 62 | 278 | 1.0 | 2.0 | 0.00 | 0.00 | 0.00 | 44 | 1003.9 |
| 20260505072448 | 63 | 68 | 1.0 | 1.0 | 0.00 | 0.00 | 0.00 | 43 | 1003.9 |
| 20260505071449 | 63 | 0 | 0.0 | 0.0 | 0.00 | 0.00 | 0.00 | 43 | 1003.8 |
| 20260505070449 | 63 | 291 | 1.0 | 2.0 | 0.00 | 0.00 | 0.00 | 41 | 1003.8 |
| 20260505065429 | 64 | 0 | 0.0 | 0.0 | 0.00 | 0.00 | 0.00 | 41 | 1003.8 |
| 20260505064450 | 64 | 334 | 1.0 | 1.0 | 0.00 | 0.00 | 0.00 | 41 | 1003.8 |
| 20260505063429 | 64 | 0 | 0.0 | 0.0 | 0.00 | 0.00 | 0.00 | 41 | 1003.6 |
| 20260505062430 | 64 | 0 | 0.0 | 0.0 | 0.00 | 0.00 | 0.00 | 43 | 1003.5 |
| 20260505061430 | 65 | 287 | 0.0 | 1.0 | 0.00 | 0.00 | 0.00 | 40 | 1003.5 |
| 20260505060429 | 65 | 285 | 1.0 | 2.0 | 0.00 | 0.00 | 0.00 | 40 | 1003.5 |
| 20260505055430 | 65 | 187 | 0.0 | 0.0 | 0.00 | 0.00 | 0.00 | 43 | 1003.4 |
| 20260505054430 | 66 | 320 | 0.0 | 1.0 | 0.00 | 0.00 | 0.00 | 44 | 1003.4 |
| 20260505053430 | 66 | 303 | 1.0 | 1.0 | 0.00 | 0.00 | 0.00 | 38 | 1003.3 |
| 20260505052430 | 67 | 300 | 1.0 | 1.0 | 0.00 | 0.00 | 0.00 | 38 | 1003.3 |
| 20260505051431 | 67 | 60 | 0.0 | 1.0 | 0.00 | 0.00 | 0.00 | 38 | 1003.3 |
| 20260505050511 | 68 | 259 | 1.0 | 2.0 | 0.00 | 0.00 | 0.00 | 37 | 1003.2 |
| 20260505041432 | 71 | 291 | 1.0 | 1.0 | 0.00 | 0.00 | 0.00 | 34 | 1003.1 |
| 20260505040432 | 72 | 298 | 1.0 | 1.0 | 0.00 | 0.00 | 0.00 | 31 | 1003.0 |
| 20260505035433 | 73 | 300 | 0.0 | 1.0 | 0.00 | 0.00 | 0.00 | 29 | 1002.9 |
| 20260505034417 | 74 | 301 | 1.0 | 2.0 | 0.00 | 0.00 | 0.00 | 28 | 1002.7 |
| 20260505033417 | 74 | 0 | 0.0 | 0.0 | 0.00 | 0.00 | 0.00 | 28 | 1002.6 |
| 20260505032418 | 75 | 283 | 0.0 | 1.0 | 0.00 | 0.00 | 0.00 | 26 | 1002.6 |
| 20260505031418 | 76 | 296 | 1.0 | 1.0 | 0.00 | 0.00 | 0.00 | 24 | 1002.3 |
| 20260505030418 | 76 | 294 | 0.0 | 1.0 | 0.00 | 0.00 | 0.00 | 24 | 1002.2 |
| 20260505025418 | 77 | 282 | 2.0 | 2.0 | 0.00 | 0.00 | 0.00 | 24 | 1002.1 |
| 20260505024418 | 78 | 284 | 2.0 | 2.0 | 0.00 | 0.00 | 0.00 | 23 | 1002.1 |
| 20260505023418 | 79 | 294 | 2.0 | 2.0 | 0.00 | 0.00 | 0.00 | 22 | 1002.0 |
| 20260505022418 | 80 | 310 | 1.0 | 2.0 | 0.00 | 0.00 | 0.00 | 20 | 1002.0 |
| 20260505021419 | 80 | 277 | 1.0 | 2.0 | 0.00 | 0.00 | 0.00 | 20 | 1002.0 |
| 20260505020419 | 81 | 298 | 2.0 | 3.0 | 0.00 | 0.00 | 0.00 | 18 | 1001.9 |
| 20260505015419 | 82 | 295 | 2.0 | 2.0 | 0.00 | 0.00 | 0.00 | 17 | 1001.9 |
| 20260505014420 | 82 | 291 | 1.0 | 2.0 | 0.00 | 0.00 | 0.00 | 17 | 1002.0 |
| 20260505013440 | 82 | 284 | 1.0 | 2.0 | 0.00 | 0.00 | 0.00 | 17 | 1002.0 |
| 20260505012420 | 83 | 295 | 2.0 | 3.0 | 0.00 | 0.00 | 0.00 | 16 | 1002.0 |
| 20260505011420 | 84 | 277 | 2.0 | 2.0 | 0.00 | 0.00 | 0.00 | 14 | 1002.0 |
| 20260505010420 | 84 | 276 | 3.0 | 4.0 | 0.00 | 0.00 | 0.00 | 14 | 1002.0 |
| 20260505005421 | 84 | 291 | 2.0 | 3.0 | 0.00 | 0.00 | 0.00 | 12 | 1002.2 |
| 20260505004421 | 84 | 299 | 3.0 | 5.0 | 0.00 | 0.00 | 0.00 | 11 | 1002.3 |
| 20260505003421 | 84 | 296 | 1.0 | 2.0 | 0.00 | 0.00 | 0.00 | 10 | 1002.5 |
| 20260505002421 | 84 | 282 | 2.0 | 3.0 | 0.00 | 0.00 | 0.00 | 11 | 1002.5 |
| 20260505001421 | 84 | 285 | 2.0 | 2.0 | 0.00 | 0.00 | 0.00 | 11 | 1002.6 |
| 20260505000441 | 84 | 261 | 1.0 | 1.0 | 0.00 | 0.00 | 0.00 | 12 | 1002.7 |
| 20260504235441 | 84 | 266 | 2.0 | 2.0 | 0.00 | 0.00 | 0.00 | 12 | 1002.8 |
| 20260504234421 | 83 | 285 | 2.0 | 3.0 | 0.00 | 0.00 | 0.00 | 14 | 1002.8 |
| 20260504233422 | 83 | 271 | 1.0 | 1.0 | 0.00 | 0.00 | 0.00 | 16 | 1002.9 |
| 20260504232422 | 83 | 317 | 3.0 | 4.0 | 0.00 | 0.00 | 0.00 | 16 | 1003.0 |
| 20260504231442 | 84 | 294 | 2.0 | 3.0 | 0.00 | 0.00 | 0.00 | 17 | 1003.0 |